Time,TemperatureF,DewpointF,PressureIn,WindDirection,WindDirectionDegrees,WindSpeedMPH,WindSpeedGustMPH,Humidity,HourlyPrecipIn,Conditions,Clouds,dailyrainin,SoftwareType,DateUTC
2013-09-12 00:10:00,77.7,75.0,30.03,NE,50,0.0,2.0,92,0.01,,,0.00,weatherlink.com 1.10,2013-09-12 04:10:00,
2013-09-12 00:25:00,77.6,75.0,30.02,NE,50,0.0,0.0,92,0.01,,,0.00,weatherlink.com 1.10,2013-09-12 04:25:00,
2013-09-12 00:40:00,77.6,75.0,30.02,NE,50,0.0,0.0,92,0.01,,,0.00,weatherlink.com 1.10,2013-09-12 04:40:00,
2013-09-12 00:55:00,77.7,75.0,30.01,NE,50,0.0,4.0,92,0.01,,,0.00,weatherlink.com 1.10,2013-09-12 04:55:00,
2013-09-12 01:10:00,77.4,75.0,30.00,NE,50,0.0,3.0,92,0.00,,,0.00,weatherlink.com 1.10,2013-09-12 05:10:00,
2013-09-12 01:25:00,77.4,75.0,30.00,NE,50,0.0,0.0,93,0.00,,,0.00,weatherlink.com 1.10,2013-09-12 05:25:00,
2013-09-12 01:40:00,77.3,75.0,29.99,NE,50,0.0,2.0,93,0.00,,,0.00,weatherlink.com 1.10,2013-09-12 05:40:00,
2013-09-12 01:55:00,77.2,75.0,29.99,NE,50,0.0,0.0,93,0.00,,,0.00,weatherlink.com 1.10,2013-09-12 05:55:00,
2013-09-12 02:10:00,77.4,75.0,29.99,NE,50,0.0,0.0,93,0.02,,,0.02,weatherlink.com 1.10,2013-09-12 06:10:00,
2013-09-12 02:25:00,77.3,75.0,29.99,NE,50,0.0,0.0,93,0.02,,,0.02,weatherlink.com 1.10,2013-09-12 06:25:00,
2013-09-12 02:40:00,77.4,75.0,29.99,NE,50,0.0,4.0,93,0.03,,,0.03,weatherlink.com 1.10,2013-09-12 06:40:00,
2013-09-12 02:55:00,77.2,75.0,29.98,NE,50,0.0,0.0,93,0.03,,,0.03,weatherlink.com 1.10,2013-09-12 06:55:00,
2013-09-12 03:10:00,77.2,75.0,29.98,NE,50,0.0,2.0,93,0.01,,,0.03,weatherlink.com 1.10,2013-09-12 07:10:00,
2013-09-12 03:25:00,77.0,75.0,29.98,NE,50,3.0,4.0,93,0.01,,,0.03,weatherlink.com 1.10,2013-09-12 07:25:00,
2013-09-12 03:40:00,76.9,75.0,29.97,NE,50,2.0,3.0,94,0.00,,,0.03,weatherlink.com 1.10,2013-09-12 07:40:00,
2013-09-12 03:55:00,76.9,75.0,29.97,NE,50,3.0,5.0,94,0.00,,,0.03,weatherlink.com 1.10,2013-09-12 07:55:00,
2013-09-12 04:10:00,77.0,75.0,29.97,NE,50,3.0,4.0,94,0.00,,,0.03,weatherlink.com 1.10,2013-09-12 08:10:00,
2013-09-12 04:25:00,77.0,75.0,29.97,NE,50,2.0,4.0,94,0.00,,,0.03,weatherlink.com 1.10,2013-09-12 08:25:00,
2013-09-12 04:40:00,76.8,75.0,29.97,NE,50,2.0,3.0,94,0.00,,,0.03,weatherlink.com 1.10,2013-09-12 08:40:00,
2013-09-12 04:55:00,76.5,75.0,29.97,NE,50,0.0,1.0,94,0.00,,,0.03,weatherlink.com 1.10,2013-09-12 08:55:00,
2013-09-12 05:10:00,76.3,75.0,29.96,NE,50,1.0,2.0,94,0.00,,,0.03,weatherlink.com 1.10,2013-09-12 09:10:00,
2013-09-12 05:25:00,76.1,74.0,29.96,NE,50,3.0,5.0,94,0.00,,,0.03,weatherlink.com 1.10,2013-09-12 09:25:00,
2013-09-12 05:40:00,76.3,75.0,29.96,NE,50,0.0,3.0,94,0.00,,,0.03,weatherlink.com 1.10,2013-09-12 09:40:00,
2013-09-12 05:55:00,76.3,75.0,29.97,NE,50,1.0,4.0,95,0.00,,,0.03,weatherlink.com 1.10,2013-09-12 09:55:00,
2013-09-12 06:10:00,76.2,74.0,29.97,NE,50,3.0,5.0,94,0.00,,,0.03,weatherlink.com 1.10,2013-09-12 10:10:00,
2013-09-12 06:25:00,76.3,75.0,29.97,NE,50,2.0,5.0,95,0.00,,,0.03,weatherlink.com 1.10,2013-09-12 10:25:00,
2013-09-12 06:40:00,76.3,75.0,29.98,NE,50,1.0,4.0,95,0.00,,,0.03,weatherlink.com 1.10,2013-09-12 10:40:00,
2013-09-12 06:55:00,76.3,75.0,29.98,NE,50,3.0,4.0,95,0.00,,,0.03,weatherlink.com 1.10,2013-09-12 10:55:00,
2013-09-12 07:10:00,76.4,75.0,29.98,NE,50,4.0,6.0,95,0.00,,,0.03,weatherlink.com 1.10,2013-09-12 11:10:00,
2013-09-12 07:25:00,76.5,75.0,29.98,NE,50,3.0,6.0,95,0.00,,,0.03,weatherlink.com 1.10,2013-09-12 11:25:00,
2013-09-12 07:40:00,76.5,75.0,29.98,NE,50,6.0,7.0,95,0.00,,,0.03,weatherlink.com 1.10,2013-09-12 11:40:00,
2013-09-12 07:55:00,76.6,75.0,29.98,ENE,64,4.0,8.0,95,0.00,,,0.03,weatherlink.com 1.10,2013-09-12 11:55:00,
2013-09-12 08:10:00,76.8,75.0,29.99,ENE,62,4.0,6.0,95,0.00,,,0.03,weatherlink.com 1.10,2013-09-12 12:10:00,
2013-09-12 08:25:00,77.1,76.0,29.99,SE,125,3.0,6.0,95,0.00,,,0.03,weatherlink.com 1.10,2013-09-12 12:25:00,
2013-09-12 08:40:00,77.3,76.0,30.00,ESE,118,5.0,6.0,95,0.00,,,0.03,weatherlink.com 1.10,2013-09-12 12:40:00,
2013-09-12 08:55:00,77.6,76.0,30.01,East,91,3.0,6.0,95,0.00,,,0.03,weatherlink.com 1.10,2013-09-12 12:55:00,
2013-09-12 09:10:00,78.0,77.0,30.01,East,89,5.0,6.0,95,0.00,,,0.03,weatherlink.com 1.10,2013-09-12 13:10:00,
2013-09-12 09:25:00,78.4,77.0,30.02,East,89,0.0,5.0,95,0.00,,,0.03,weatherlink.com 1.10,2013-09-12 13:25:00,
2013-09-12 09:40:00,78.5,77.0,30.01,East,88,0.0,4.0,95,0.00,,,0.03,weatherlink.com 1.10,2013-09-12 13:40:00,
2013-09-12 09:55:00,78.9,77.0,30.01,East,88,0.0,4.0,95,0.00,,,0.03,weatherlink.com 1.10,2013-09-12 13:55:00,
2013-09-12 10:10:00,79.1,78.0,30.01,East,88,0.0,5.0,95,0.00,,,0.03,weatherlink.com 1.10,2013-09-12 14:10:00,
2013-09-12 10:25:00,79.6,78.0,30.02,East,88,3.0,4.0,95,0.00,,,0.03,weatherlink.com 1.10,2013-09-12 14:25:00,
2013-09-12 10:40:00,80.3,79.0,30.01,East,88,4.0,5.0,94,0.00,,,0.03,weatherlink.com 1.10,2013-09-12 14:40:00,
2013-09-12 10:55:00,81.1,79.0,30.01,East,85,5.0,7.0,94,0.00,,,0.03,weatherlink.com 1.10,2013-09-12 14:55:00,
2013-09-12 11:11:00,81.9,79.0,30.00,East,84,0.0,6.0,92,0.00,,,0.03,weatherlink.com 1.10,2013-09-12 15:11:00,
2013-09-12 11:26:00,82.1,79.0,30.00,East,87,2.0,7.0,91,0.00,,,0.03,weatherlink.com 1.10,2013-09-12 15:26:00,
2013-09-12 11:41:00,83.0,80.0,30.00,East,86,7.0,7.0,90,0.00,,,0.03,weatherlink.com 1.10,2013-09-12 15:41:00,
2013-09-12 11:56:00,83.6,80.0,30.00,SE,137,3.0,8.0,88,0.00,,,0.03,weatherlink.com 1.10,2013-09-12 15:56:00,
2013-09-12 12:11:00,83.7,79.0,29.99,NE,55,7.0,9.0,86,0.00,,,0.03,weatherlink.com 1.10,2013-09-12 16:11:00,
2013-09-12 12:26:00,85.6,80.0,29.99,East,89,1.0,8.0,84,0.00,,,0.03,weatherlink.com 1.10,2013-09-12 16:26:00,
2013-09-12 12:41:00,85.8,79.0,29.99,ESE,106,1.0,10.0,80,0.00,,,0.03,weatherlink.com 1.10,2013-09-12 16:41:00,
2013-09-12 12:56:00,86.1,79.0,29.98,ESE,122,2.0,7.0,79,0.00,,,0.03,weatherlink.com 1.10,2013-09-12 16:56:00,
2013-09-12 13:11:00,86.5,79.0,29.98,SSE,149,8.0,9.0,77,0.00,,,0.03,weatherlink.com 1.10,2013-09-12 17:11:00,
2013-09-12 13:26:00,85.9,78.0,29.98,ESE,120,1.0,7.0,77,0.00,,,0.03,weatherlink.com 1.10,2013-09-12 17:26:00,
2013-09-12 13:41:00,85.9,78.0,29.97,ESE,121,0.0,6.0,78,0.00,,,0.03,weatherlink.com 1.10,2013-09-12 17:41:00,
2013-09-12 13:56:00,85.7,77.0,29.97,SSE,165,6.0,8.0,76,0.00,,,0.03,weatherlink.com 1.10,2013-09-12 17:56:00,
2013-09-12 14:11:00,85.4,77.0,29.97,SSE,167,6.0,8.0,77,0.00,,,0.03,weatherlink.com 1.10,2013-09-12 18:11:00,
2013-09-12 14:26:00,85.2,77.0,29.96,South,185,4.0,9.0,77,0.00,,,0.03,weatherlink.com 1.10,2013-09-12 18:26:00,
2013-09-12 14:41:00,85.1,78.0,29.95,South,180,2.0,8.0,78,0.00,,,0.03,weatherlink.com 1.10,2013-09-12 18:41:00,
2013-09-12 14:56:00,85.1,78.0,29.95,SSE,156,3.0,9.0,78,0.00,,,0.03,weatherlink.com 1.10,2013-09-12 18:56:00,
2013-09-12 15:11:00,84.9,77.0,29.93,South,171,5.0,8.0,77,0.00,,,0.03,weatherlink.com 1.10,2013-09-12 19:11:00,
2013-09-12 15:26:00,85.2,77.0,29.92,South,171,3.0,6.0,77,0.00,,,0.03,weatherlink.com 1.10,2013-09-12 19:26:00,
2013-09-12 15:41:00,85.9,78.0,29.91,South,185,3.0,9.0,77,0.00,,,0.03,weatherlink.com 1.10,2013-09-12 19:41:00,
2013-09-12 15:56:00,86.4,79.0,29.91,South,185,5.0,8.0,78,0.00,,,0.03,weatherlink.com 1.10,2013-09-12 19:56:00,
2013-09-12 16:11:00,87.1,79.0,29.90,WSW,243,3.0,7.0,77,0.00,,,0.03,weatherlink.com 1.10,2013-09-12 20:11:00,
2013-09-12 16:26:00,86.7,79.0,29.90,SSW,211,5.0,8.0,77,0.00,,,0.03,weatherlink.com 1.10,2013-09-12 20:26:00,
2013-09-12 16:41:00,86.0,78.0,29.90,SSW,210,6.0,8.0,78,0.00,,,0.03,weatherlink.com 1.10,2013-09-12 20:41:00,
2013-09-12 16:56:00,85.4,78.0,29.90,WSW,243,7.0,8.0,79,0.00,,,0.03,weatherlink.com 1.10,2013-09-12 20:56:00,
2013-09-12 17:11:00,84.7,77.0,29.89,SW,223,3.0,8.0,78,0.00,,,0.03,weatherlink.com 1.10,2013-09-12 21:11:00,
2013-09-12 17:26:00,84.4,77.0,29.89,SSW,198,6.0,9.0,79,0.00,,,0.03,weatherlink.com 1.10,2013-09-12 21:26:00,
2013-09-12 17:41:00,84.4,78.0,29.89,SSW,213,3.0,8.0,80,0.00,,,0.03,weatherlink.com 1.10,2013-09-12 21:41:00,
2013-09-12 17:56:00,84.5,78.0,29.90,SSW,198,4.0,6.0,81,0.00,,,0.03,weatherlink.com 1.10,2013-09-12 21:56:00,
2013-09-12 18:11:00,84.3,77.0,29.91,South,185,4.0,7.0,78,0.00,,,0.03,weatherlink.com 1.10,2013-09-12 22:11:00,
2013-09-12 18:26:00,84.1,76.0,29.91,South,185,5.0,7.0,77,0.00,,,0.03,weatherlink.com 1.10,2013-09-12 22:26:00,
2013-09-12 18:41:00,84.1,76.0,29.91,South,185,1.0,5.0,77,0.00,,,0.03,weatherlink.com 1.10,2013-09-12 22:41:00,
2013-09-12 18:56:00,84.0,76.0,29.92,South,185,2.0,4.0,76,0.00,,,0.03,weatherlink.com 1.10,2013-09-12 22:56:00,
2013-09-12 19:11:00,83.9,76.0,29.92,South,185,0.0,2.0,77,0.00,,,0.03,weatherlink.com 1.10,2013-09-12 23:11:00,
2013-09-12 19:26:00,83.9,76.0,29.92,South,185,0.0,1.0,78,0.00,,,0.03,weatherlink.com 1.10,2013-09-12 23:26:00,
2013-09-12 19:41:00,83.8,76.0,29.93,South,185,0.0,0.0,78,0.00,,,0.03,weatherlink.com 1.10,2013-09-12 23:41:00,
2013-09-12 19:56:00,83.4,76.0,29.93,NE,49,5.0,9.0,79,0.00,,,0.03,weatherlink.com 1.10,2013-09-12 23:56:00,
2013-09-12 20:11:00,81.9,75.0,29.93,NNE,20,4.0,13.0,79,0.00,,,0.03,weatherlink.com 1.10,2013-09-13 00:11:00,
2013-09-12 20:26:00,80.3,74.0,29.95,NE,43,9.0,10.0,82,0.00,,,0.03,weatherlink.com 1.10,2013-09-13 00:26:00,
2013-09-12 20:41:00,79.4,75.0,29.95,NNE,33,5.0,11.0,85,0.00,,,0.03,weatherlink.com 1.10,2013-09-13 00:41:00,
2013-09-12 20:56:00,78.6,74.0,29.95,NE,50,6.0,11.0,86,0.00,,,0.03,weatherlink.com 1.10,2013-09-13 00:56:00,
2013-09-12 21:11:00,78.2,74.0,29.95,NE,52,7.0,9.0,87,0.00,,,0.03,weatherlink.com 1.10,2013-09-13 01:11:00,
2013-09-12 21:26:00,77.9,74.0,29.95,NE,54,2.0,5.0,88,0.00,,,0.03,weatherlink.com 1.10,2013-09-13 01:26:00,
2013-09-12 21:41:00,77.7,74.0,29.95,NE,54,1.0,3.0,88,0.00,,,0.03,weatherlink.com 1.10,2013-09-13 01:41:00,
2013-09-12 21:56:00,77.6,74.0,29.94,NE,54,2.0,4.0,88,0.00,,,0.03,weatherlink.com 1.10,2013-09-13 01:56:00,
2013-09-12 22:11:00,77.5,74.0,29.93,NE,54,3.0,3.0,89,0.00,,,0.03,weatherlink.com 1.10,2013-09-13 02:11:00,
2013-09-12 22:26:00,77.3,74.0,29.93,NE,54,0.0,3.0,89,0.00,,,0.03,weatherlink.com 1.10,2013-09-13 02:26:00,
2013-09-12 22:41:00,77.2,74.0,29.92,NE,54,0.0,0.0,89,0.00,,,0.03,weatherlink.com 1.10,2013-09-13 02:41:00,
2013-09-12 22:56:00,77.0,74.0,29.92,ENE,58,0.0,0.0,89,0.00,,,0.03,weatherlink.com 1.10,2013-09-13 02:56:00,
2013-09-12 23:11:00,76.7,73.0,29.92,ENE,58,0.0,0.0,89,0.00,,,0.03,weatherlink.com 1.10,2013-09-13 03:11:00,
2013-09-12 23:26:00,76.7,74.0,29.92,ENE,58,0.0,0.0,90,0.00,,,0.03,weatherlink.com 1.10,2013-09-13 03:26:00,
2013-09-12 23:41:00,76.7,74.0,29.92,ENE,58,0.0,1.0,90,0.00,,,0.03,weatherlink.com 1.10,2013-09-13 03:41:00,
2013-09-12 23:56:00,76.8,74.0,29.91,ENE,58,0.0,2.0,90,0.00,,,0.03,weatherlink.com 1.10,2013-09-13 03:56:00,